Location: Arroyo Grande
(40.2671°N, 4.2512°W)
Time: 01:06:26
(UTC+00:00)

Cosmos 2278 Rocket - Pass Details

Date: 02 October 2023
Orbit: 842 x 844 km, 71.0° (Epoch: 03 December)

Event Time Altitude Azimuth Distance (km) Brightness Sun altitude
Rises 18:58:50 0° 340° (NNW) 3,410 5.7 -12.4°
Reaches altitude 10° 19:01:21 10° 345° (NNW) 2,471 4.9 -12.9°
Maximum altitude 19:06:54 55° 63° (ENE) 1,005 2.3 -13.9°
Enters shadow 19:12:02 12° 140° (SE) 2,308 4.0 -14.9°
